Weather History for Dalhart, TX

Change the Weather History Date:

Thursday, February 7, 2013

  Actual Average Record
Temperature  
Mean Temperature 43 °F 36 °F  
Max Temperature 54 °F 52 °F 76 °F (1963)
Min Temperature 31 °F 21 °F -5 °F (1989)
Degree Days  
Heating Degree Days 22 29  
Month to date heating degree days 154 203  
Since 1 July heating degree days 2720 3085  
Cooling Degree Days 0 0  
Month to date cooling degree days 0 0  
Year to date cooling degree days 0 0  
Moisture  
Dew Point 20 °F    
Average Humidity 40    
Maximum Humidity 55    
Minimum Humidity 24    
Precipitation  
Precipitation 0.00 in 0.02 in 0.51 in (1978)
Month to date precipitation 0.00 0.11  
Year to date precipitation 0.17 0.63  
Snow  
Snow 0.00 in 0.10 in 5.00 in (1978)
Month to date snowfall 0.0 0.9  
Since 1 July snowfall 4.5 11.4  
Snow Depth 0.00 in    
Sea Level Pressure  
Sea Level Pressure 30.05 in    
Wind  
Wind Speed 16 mph (NNE)    
Max Wind Speed 33 mph    
Max Gust Speed 39 mph    
Visibility 10 miles    
Events      
T = Trace of Precipitation, MM = Missing Value Source: NWS Daily Summary

Daily Weather History Graph

Daily Weather History Graph

Search for Another Location

Airport:

Trip Planner

Search our weather history database for the weather conditions in past years. The results will help you decide how hot, cold, wet, or windy it might be!

Date:

Astronomy

Feb. 07, 2013 Rise Set
Actual Time 7:45 AM CST 6:23 PM CST
Civil Twilight 7:18 AM CST 6:50 PM CST
Nautical Twilight 6:48 AM CST 7:20 PM CST
Astronomical Twilight 6:18 AM CST 7:50 PM CST
Moon 5:23 AM CST (2/7) 3:53 PM CST (2/7)
Length of Visible Light 11h 31m
Length of Day
10h 38m
Waning Crescent, 9% of the Moon is Illuminated
Feb 7
Waning Crescent
Feb 10
New
Feb 17
First Quarter
Feb 25
Full
Mar 4
Last Quarter

Hourly Weather History & Observations

Time (CST) Temp. Windchill Dew Point Humidity Pressure Visibility Wind Dir Wind Speed Gust Speed Precip Events Conditions
12:53 AM 48.0 °F - 19.9 °F 33% 29.77 in 10.0 mi North 19.6 mph - N/A   Clear
1:53 AM 46.0 °F 37.8 °F 19.0 °F 34% 29.78 in 10.0 mi North 23.0 mph 28.8 mph N/A   Clear
2:53 AM 44.1 °F 36.2 °F 19.0 °F 37% 29.81 in 10.0 mi North 18.4 mph 27.6 mph N/A   Clear
3:53 AM 45.0 °F 35.8 °F 19.9 °F 37% 29.83 in 10.0 mi North 26.5 mph 34.5 mph N/A   Clear
4:53 AM 44.1 °F 35.7 °F 23.0 °F 43% 29.87 in 10.0 mi North 20.7 mph 33.4 mph N/A   Clear
5:53 AM 43.0 °F 34.5 °F 24.1 °F 47% 29.92 in 10.0 mi North 19.6 mph 27.6 mph N/A   Clear
6:53 AM 43.0 °F 34.2 °F 24.1 °F 47% 29.97 in 10.0 mi North 20.7 mph 31.1 mph N/A   Mostly Cloudy
7:53 AM 42.1 °F 33.1 °F 25.0 °F 51% 29.99 in 10.0 mi North 20.7 mph 28.8 mph N/A   Partly Cloudy
8:53 AM 41.0 °F 31.4 °F 27.0 °F 57% 30.06 in 10.0 mi North 21.9 mph 27.6 mph N/A   Mostly Cloudy
9:53 AM 43.0 °F 33.3 °F 24.1 °F 47% 30.10 in 10.0 mi North 25.3 mph 34.5 mph N/A   Overcast
10:53 AM 45.0 °F 35.8 °F 21.9 °F 40% 30.12 in 10.0 mi NNE 26.5 mph 33.4 mph N/A   Overcast
11:53 AM 48.9 °F - 21.9 °F 35% 30.12 in 10.0 mi NE 23.0 mph 33.4 mph N/A   Partly Cloudy
12:21 PM 50.0 °F - 21.2 °F 32% 30.17 in 7.0 mi North 25.3 mph 33.4 mph N/A   Partly Cloudy
12:53 PM 50.0 °F - 21.0 °F 32% 30.11 in 10.0 mi NNE 24.2 mph 34.5 mph N/A   Clear
1:53 PM 52.0 °F - 21.0 °F 30% 30.09 in 7.0 mi NNE 19.6 mph 25.3 mph N/A   Clear
2:53 PM 53.1 °F - 19.0 °F 26% 30.09 in 10.0 mi NNE 17.3 mph 25.3 mph N/A   Clear
3:53 PM 53.1 °F - 19.0 °F 26% 30.09 in 10.0 mi NNE 15.0 mph - N/A   Clear
4:53 PM 52.0 °F - 17.1 °F 25% 30.10 in 10.0 mi NNE 13.8 mph - N/A   Clear
5:53 PM 50.0 °F - 16.0 °F 26% 30.13 in 10.0 mi NNE 9.2 mph - N/A   Clear
6:53 PM 46.0 °F 43.9 °F 17.1 °F 31% 30.15 in 10.0 mi NNE 4.6 mph - N/A   Clear
7:53 PM 39.9 °F 37.8 °F 17.1 °F 40% 30.18 in 10.0 mi ENE 3.5 mph - N/A   Clear
8:53 PM 37.9 °F 33.5 °F 17.1 °F 43% 30.19 in 10.0 mi East 5.8 mph - N/A   Clear
9:53 PM 34.0 °F 31.0 °F 18.0 °F 52% 30.21 in 10.0 mi South 3.5 mph - N/A   Clear
10:53 PM 33.1 °F 30.0 °F 18.0 °F 54% 30.22 in 10.0 mi SSW 3.5 mph - N/A   Clear
11:53 PM 32.0 °F 28.7 °F 19.0 °F 59% 30.22 in 10.0 mi SSW 3.5 mph - N/A   Clear